GW0865 Weather Reports


time (UTC)temp
F
wind
direction
speed
knots
gust
knots
rain 1hr
in
rain 24hr
in
rain mn
in
humidity
%
barometer
mb
20260502163038 63 82 0.0 1.7 0.00 0.00 0.00 66 1011.2
20260502161538 63 0 0.0 1.7 0.00 0.00 0.00 65 1011.3
20260502151546 63 54 0.9 1.7 0.00 0.00 0.00 63 1012.3
20260502123040 61 246 3.5 7.0 0.00 0.00 0.00 64 1014.6
20260502121539 61 306 2.6 7.8 0.00 0.00 0.00 63 1014.8
20260502114540 61 222 3.5 9.6 0.00 0.00 0.00 68 1015.2
20260502113040 60 233 3.5 8.7 0.00 0.00 0.00 67 1015.1
20260502111538 60 222 3.5 7.0 0.00 0.00 0.00 69 1015.2
20260502110042 60 248 1.7 7.0 0.00 0.00 0.00 71 1015.5
20260502104547 59 283 3.5 6.1 0.00 0.00 0.00 72 1015.8
20260502103051 59 249 2.6 7.0 0.00 0.00 0.00 73 1016.1
20260502101600 58 227 2.6 6.1 0.00 0.00 0.00 71 1016.0
20260502070044 49 0 0.0 0.9 0.00 0.00 0.00 96 1017.0
20260502064544 48 0 0.0 0.9 0.00 0.00 0.00 96 1017.0
20260502063040 48 256 0.0 0.9 0.00 0.00 0.00 96 1017.0
20260502061542 48 327 0.0 1.7 0.00 0.00 0.00 96 1016.7
20260502060038 48 290 0.0 0.9 0.00 0.00 0.00 97 1016.7
20260502054548 48 0 0.0 0.9 0.00 0.00 0.00 97 1016.7
20260502053053 48 0 0.0 0.9 0.00 0.00 0.00 97 1016.9
20260502051553 48 0 0.0 0.9 0.00 0.00 0.00 97 1016.7
20260502050040 48 0 0.0 0.9 0.00 0.00 0.00 97 1016.8
20260502044540 48 244 0.9 2.6 0.00 0.00 0.00 96 1016.8
20260502043040 48 237 0.0 3.5 0.00 0.00 0.00 96 1016.8
20260502041540 49 215 0.0 0.9 0.00 0.00 0.00 96 1016.8
20260502040042 49 236 0.0 2.6 0.00 0.00 0.00 96 1016.9
20260502034540 50 0 0.0 0.0 0.00 0.00 0.00 96 1016.9
20260502033042 50 182 0.0 2.6 0.00 0.00 0.00 96 1017.1
20260502031543 50 274 0.0 1.7 0.00 0.00 0.00 95 1017.0
20260502030037 50 250 0.9 2.6 0.00 0.00 0.00 95 1017.1
20260502024544 51 236 0.0 0.9 0.00 0.00 0.00 94 1017.2
20260502023041 51 253 0.0 1.7 0.00 0.00 0.00 94 1017.1
20260502021539 52 0 0.0 0.9 0.00 0.00 0.00 94 1017.2
20260502020038 52 238 0.0 0.9 0.00 0.00 0.00 94 1017.4
20260502014538 52 0 0.0 0.9 0.00 0.00 0.00 94 1017.5
20260502013054 51 235 0.0 0.9 0.00 0.00 0.00 94 1017.6
20260502011602 51 0 0.0 0.9 0.00 0.00 0.00 94 1017.7
20260502010045 51 0 0.0 0.9 0.00 0.00 0.00 94 1017.9
20260502004557 51 0 0.0 0.9 0.00 0.00 0.00 93 1018.1
20260502003038 52 0 0.0 0.9 0.00 0.00 0.00 93 1017.9
20260502001540 52 0 0.0 0.9 0.00 0.00 0.00 93 1018.0
20260502000105 53 0 0.0 0.9 0.00 0.00 0.00 92 1018.0
20260501234543 53 0 0.0 1.7 0.00 0.00 0.00 92 1018.2
20260501233041 54 248 0.0 2.6 0.00 0.00 0.00 91 1018.2
20260501231549 55 203 1.7 3.5 0.00 0.00 0.00 90 1018.3
20260501230038 56 222 0.9 1.7 0.00 0.00 0.00 89 1018.4
20260501224538 56 219 0.9 1.7 0.00 0.00 0.00 89 1018.3
20260501223042 56 0 0.0 2.6 0.00 0.00 0.00 89 1018.4
20260501221559 56 0 0.0 1.7 0.00 0.00 0.00 89 1018.4
20260501220045 56 0 0.9 1.7 0.00 0.00 0.00 89 1018.4
20260501214539 56 220 0.0 1.7 0.00 0.00 0.00 88 1018.4
20260501213040 57 243 1.7 2.6 0.00 0.00 0.00 88 1018.4
20260501211547 57 235 0.0 0.9 0.00 0.00 0.00 87 1018.2
20260501210041 57 229 0.0 1.7 0.00 0.00 0.00 87 1018.2
20260501204542 57 272 0.0 2.6 0.00 0.00 0.00 87 1018.3
20260501203039 57 282 0.0 3.5 0.00 0.00 0.00 86 1018.4
20260501201539 57 272 1.7 3.5 0.00 0.00 0.00 86 1018.3
20260501200043 57 272 0.0 2.6 0.00 0.00 0.00 85 1018.3
20260501194549 57 286 0.9 2.6 0.00 0.00 0.00 85 1018.3
20260501193043 57 234 0.0 2.6 0.00 0.00 0.00 84 1018.2
20260501191541 58 220 1.7 7.8 0.00 0.00 0.00 83 1018.2
20260501190054 58 251 2.6 6.1 0.00 0.00 0.00 82 1018.1
20260501184547 59 286 2.6 5.2 0.00 0.00 0.00 80 1018.0
20260501183038 59 330 0.9 7.0 0.00 0.00 0.00 80 1018.0
20260501181541 59 298 2.6 7.0 0.00 0.00 0.00 80 1017.9
20260501180038 60 313 3.5 5.2 0.00 0.00 0.00 81 1018.0
20260501174547 60 233 2.6 7.0 0.00 0.00 0.00 81 1017.9